Regional Weather Roundup
Issued by NWS Kansas City/Pleasant Hill, MO

Home | Current Version | Previous Version | Graphics & Text | Print | Product List | Glossary Off
Versions: 1 2 3 4 5 6 7 8 9 10 11 12 13 14 15 16 17 18 19 20 21 22 23 24 25 26 27 28 29 30 31 32 33 34 35 36 37 38 39 40 41 42 43 44 45 46 47 48 49 50

000
ASUS43 KEAX 230010
RWREAX

WEATHER ROUNDUP FOR EASTERN KANSAS AND NORTHWEST MISSOURI
NATIONAL WEATHER SERVICE KANSAS CITY/PLEASANT HILL MO
600 PM CST WED NOV 22 2017

KSZ040-057-103>105-MOZ028-029-037-043-230100-
...KANSAS CITY METROPOLITAN AREA...

CITY           SKY/WX    TMP DP  RH WIND       PRES   REMARKS
K.C. INTL      PTCLDY    32  18  56 S8        30.20F WCI  25
6HR MIN TEMP:  31; 6HR MAX TEMP:  41;

K.C. DOWNTOWN  CLEAR     41  16  36 S7        30.22F
6HR MIN TEMP:  36; 6HR MAX TEMP:  44;

LEES SUMMIT    CLOUDY    38  18  44 S6        30.23F WCI  33
6HR MIN TEMP:  36; 6HR MAX TEMP:  42;

OLATHE - IXD   CLOUDY    35  18  49 SE7       30.22F WCI  29
6HR MIN TEMP:  34; 6HR MAX TEMP:  42;

OLATHE - OJC   CLOUDY    36  18  48 S5        30.22F WCI  32
6HR MIN TEMP:  31; 6HR MAX TEMP:  40; 6HR PCP: TRACE;

LAWRENCE       CLOUDY    34  19  54 SE7       30.21F WCI  28

$$

MOZ001>008-011>017-020>025-030>033-038>040-044>046-053-054-230100-
...NORTHERN AND CENTRAL MISSOURI...

CITY           SKY/WX    TMP DP  RH WIND       PRES   REMARKS
ST. JOSEPH     CLOUDY    35  17  47 S8        30.20F WCI  29
6HR MIN TEMP:  34; 6HR MAX TEMP:  42;

MOSBY          CLOUDY    37  14  38 SE3       30.23F
WARRENSBURG    CLOUDY    36  18  48 CALM      30.25R
WHITEMAN AFB   CLOUDY    35  16  44 CALM      30.22R
6HR MIN TEMP:  34; 6HR MAX TEMP:  43;

CLINTON        CLOUDY    34  18  51 MISG      30.26R
SEDALIA        CLOUDY    35  17  47 W3        30.27R
6HR MIN TEMP:  35; 6HR MAX TEMP:  43;

WARSAW         NOT AVBL
CHILLICOTHE      N/A     35  15  44 S5        30.25F WCI  31
6HR MIN TEMP:  34; 6HR MAX TEMP:  41;

KIRKSVILLE     CLOUDY    33  14  45 S3        30.24R
6HR MIN TEMP:  31; 6HR MAX TEMP:  41;


$$

MOZ041-047>049-056>058-063>065-088>090-097-230100-
...EASTERN AND SOUTHERN MISSOURI...

CITY           SKY/WX    TMP DP  RH WIND       PRES   REMARKS
ST. LOUIS INTL MOCLDY    35  19  52 CALM      30.29S
6HR MIN TEMP:  34; 6HR MAX TEMP:  40;

SPIRIT OF STL  MOCLDY    32  21  64 CALM      30.29F
COLUMBIA       PTCLDY    34  14  43 SE3       30.25F
JEFFERSON CITY PTCLDY    35  16  45 E6        30.25F WCI  30
ROLLA          CLOUDY    32  16  51 E3        30.25F
OSAGE BEACH    CLOUDY    35  13  40 CALM      30.25F
SPRINGFIELD    CLOUDY    34  20  56 S3        30.21F
BRANSON        PTCLDY    34  19  55 CALM      30.25F
JOPLIN         CLOUDY    39  22  50 VRB3      30.26S
WEST PLAINS    CLEAR     36  15  42 CALM      30.25S

$$

IAZ060-094-KSZ022-034>040-054-083-096-NEZ052-066-093-230100-
...KANSAS...SOUTHEAST NEBRASKA AND IOWA...

CITY           SKY/WX    TMP DP  RH WIND       PRES   REMARKS
TOPEKA         CLEAR     38  18  44 SE6       30.19F WCI  33
6HR MIN TEMP:  36; 6HR MAX TEMP:  45;

MANHATTAN      CLEAR     40  18  41 S5        30.18S
EMPORIA        CLEAR     38  17  42 S9        30.19F WCI  31
CHANUTE        CLOUDY    37  19  48 S5        30.25F WCI  33
WICHITA        PTCLDY    40  21  46 S9        30.21F WCI  34
OMAHA          MOCLDY    38  17  42 S10       30.12F WCI  31
LINCOLN        CLEAR     36  19  50 S8        30.12F WCI  30
FALLS CITY     CLEAR     37  16  42 S5        30.18S WCI  33
LAMONI         CLOUDY    33  16  49 S8        30.17F WCI  26
DES MOINES     PTCLDY    35  14  42 S9        30.15F WCI  28

$$




USA.gov is the U.S. government's official web portal to all federal, state and local government web resources and services.